Location: Hurecourt
(47.9030°N, 6.0653°E)
Time: 04:28:56
(UTC+00:00)

Meteor 1-23 Rocket - Pass Details

Date: 14 July 2020
Orbit: 838 x 887 km, 81.3° (Epoch: 06 August)

Event Time Altitude Azimuth Distance (km) Brightness Sun altitude
Rises 02:25:05 0° 346° (NNW) 3,461 8.0 -11.4°
Reaches altitude 10° 02:27:31 10° 344° (NNW) 2,526 7.2 -11.2°
Maximum altitude 02:33:13 68° 263° (W) 943 4.3 -10.6°
Drops below altitude 10° 02:38:57 10° 181° (S) 2,535 6.2 -9.9°
Enters shadow 02:40:44 - 180° (S) 3,219 6.8 -9.7°
